Theta_e
309 309 309 309 308 308 309 308 313 314 315 312 310 315 315 317 318 319 317 316 316 316 317 320 319 320 319 319 320 320 324 325 325 324 325 323 323 322 321 322 322 322 322 321 321
309 309 309 309 308 308 308 312 314 316 314 311 312 315 316 318 320 317 315 315 316 316 321 320 320 319 321 320 320 322 325 325 324 323 324 322 322 321 321 322 322 322 321 321 321
310 310 309 309 308 308 311 313 316 316 315 313 314 315 316 317 322 318 315 315 315 316 319 319 319 321 321 322 321 323 325 323 321 322 321 322 321 320 321 322 322 320 319 319 320
311 311 309 309 310 310 312 315 316 317 317 314 314 314 314 317 323 317 315 316 317 317 318 319 320 321 323 322 321 322 322 322 321 320 320 321 320 320 320 320 319 318 318 318 319
311 311 310 309 312 312 314 316 316 316 317 314 314 314 315 320 318 316 315 317 318 318 319 320 321 321 322 321 322 323 321 320 319 319 319 319 320 320 320 319 319 319 319 319 319
311 312 310 310 313 314 316 315 316 317 318 314 313 317 320 320 316 316 316 317 318 318 319 320 320 320 321 321 322 320 320 321 319 320 320 320 320 320 320 319 319 319 320 320 320
311 312 310 310 311 314 315 315 316 316 317 314 314 318 320 317 317 317 317 317 317 318 318 318 318 320 320 321 319 320 321 321 321 320 320 319 321 321 320 319 320 320 320 320 321
310 312 311 310 310 311 314 314 315 315 314 316 315 320 319 318 318 317 318 317 316 317 317 318 319 320 321 319 320 321 321 322 323 321 320 319 321 322 321 320 320 320 320 322 323
308 312 311 311 312 311 311 313 314 313 313 317 318 322 319 316 318 317 318 317 317 317 317 316 319 320 320 322 322 323 322 322 322 322 321 321 322 322 321 321 321 321 321 323 323
308 312 312 315 316 317 318 317 317 313 314 316 319 321 317 319 317 317 317 318 318 319 319 319 320 323 323 323 323 322 321 321 322 323 322 322 322 323 321 322 321 320 322 323 324
309 312 313 315 315 315 316 318 320 322 318 322 321 320 318 318 317 318 317 318 319 321 322 320 323 323 322 321 321 321 322 322 323 323 322 323 323 323 322 322 322 321 323 323 323
310 312 314 315 316 317 320 321 320 320 322 318 319 319 319 319 319 318 318 320 320 322 322 323 324 322 320 321 321 322 323 323 323 322 322 322 323 323 324 322 320 322 322 323 323
311 312 314 316 317 320 319 318 318 319 325 319 318 318 318 319 320 319 318 319 320 321 322 322 323 320 320 321 322 323 322 323 321 321 322 323 323 323 322 320 321 322 322 323 323
312 315 316 317 319 318 320 317 319 321 327 320 319 319 319 320 320 317 318 318 320 321 321 321 321 320 321 321 322 321 321 321 321 322 323 323 323 322 323 322 322 322 322 322 323
311 314 316 315 321 319 316 317 320 323 335 321 320 320 319 319 319 319 317 318 320 321 321 322 321 321 320 321 320 320 320 321 321 323 324 322 323 323 321 321 321 321 320 320 322
311 313 315 320 322 318 317 320 324 330 332 323 321 319 319 320 320 320 320 319 319 320 321 321 320 320 321 320 320 320 321 322 323 322 322 323 322 321 321 321 320 320 319 319 321
314 314 316 318 322 320 318 322 329 329 326 322 321 320 322 322 322 321 322 322 322 323 324 323 323 321 319 320 321 321 322 323 321 321 321 320 320 320 321 321 320 319 318 319 320
314 311 316 319 321 320 320 325 327 325 323 321 321 321 322 322 322 322 322 323 322 322 323 324 325 321 321 320 320 320 322 322 323 321 319 320 321 321 321 320 319 319 319 320 320
314 320 322 321 319 319 321 326 326 324 322 321 321 321 323 322 321 322 323 322 322 322 324 323 324 322 321 320 319 320 321 321 321 321 322 321 320 319 320 319 319 319 319 318 318
323 324 321 320 319 321 325 323 324 321 321 321 323 323 324 323 322 323 323 322 322 321 320 322 323 322 320 319 320 320 320 320 321 323 322 320 319 319 318 317 319 320 319 318 318
321 325 320 318 319 324 328 327 323 320 320 322 323 323 323 322 322 322 322 322 321 321 320 321 322 322 320 320 319 319 319 319 319 320 320 320 319 319 318 319 320 319 317 315 315
321 324 317 316 324 322 325 322 317 321 320 320 321 321 322 322 322 322 323 323 320 319 320 320 321 321 320 319 317 316 316 317 324 320 319 325 322 317 317 317 318 318 317 316 316
319 319 316 318 325 323 322 320 319 320 320 321 321 321 322 321 327 322 322 320 319 318 319 318 318 320 319 319 319 319 318 317 317 318 319 321 318 317 316 317 318 316 316 317 314
317 320 318 317 317 319 320 320 320 317 318 318 320 319 320 321 322 322 320 319 317 316 311 313 317 317 320 319 318 318 316 316 316 324 318 317 317 317 319 319 318 316 315 316 316
316 318 314 320 318 317 318 319 319 320 318 318 320 319 319 320 320 319 318 317 316 313 315 317 321 320 318 316 316 316 316 316 316 316 319 317 316 317 319 318 316 315 314 314 314
316 315 316 317 316 317 314 321 319 319 316 319 318 319 317 317 318 318 317 317 317 316 316 317 320 318 319 317 316 316 315 315 315 315 315 316 317 317 316 316 315 314 313 313 313
314 315 315 317 317 317 318 316 316 314 316 316 316 316 316 317 316 314 312 313 314 316 317 318 319 319 319 317 316 317 317 316 315 315 315 318 317 317 317 315 314 313 312 312 313
Wind_Speed
6 6 6 6 5 5 7 11 14 11 9 8 10 16 18 16 14 9 7 4 5 4 4 1 3 4 5 3 6 8 10 11 3 4 8 4 8 3 2 7 3 5 6 6 8
5 6 6 6 6 7 11 15 14 11 9 10 15 17 15 10 7 7 5 4 2 4 5 3 5 4 4 3 3 12 10 11 10 8 5 3 8 5 7 5 5 5 6 8 9
5 5 5 6 8 10 14 15 11 9 8 11 15 16 11 3 2 7 5 6 5 3 2 1 3 4 3 1 2 3 4 7 4 5 6 3 6 3 8 9 6 9 14 13 13
5 5 5 6 9 12 15 13 9 7 6 8 12 12 4 3 2 1 3 8 12 8 2 3 6 3 2 3 0 6 6 2 5 3 4 3 6 9 4 8 6 11 13 14 14
4 5 5 6 9 13 13 10 8 8 6 4 8 8 8 3 9 3 5 8 8 5 2 4 3 1 1 2 3 5 3 2 3 4 3 3 10 7 8 3 8 12 14 14 13
3 4 6 7 9 11 11 9 7 6 7 6 7 6 6 4 1 2 2 4 5 5 6 2 2 3 2 1 5 3 1 4 3 1 6 8 12 9 13 4 10 11 12 12 10
2 3 5 7 8 9 9 8 6 4 6 5 5 2 5 6 3 2 3 2 3 4 4 4 1 5 3 4 0 2 9 7 8 3 10 5 19 19 9 7 12 13 11 9 8
3 4 5 6 6 6 7 7 5 4 2 5 3 1 5 3 3 3 2 3 3 1 1 0 1 2 6 0 6 10 8 10 14 6 3 8 12 7 2 10 14 11 11 8 6
4 4 6 6 5 4 4 4 4 3 2 4 2 6 8 3 4 2 2 2 1 1 1 2 4 5 9 12 10 9 7 7 6 6 4 10 15 13 10 12 14 10 9 7 7
5 6 6 6 5 4 4 2 1 2 3 3 7 7 7 4 3 2 0 1 1 3 7 7 8 10 5 8 8 12 11 11 12 8 11 14 17 14 18 16 16 8 5 5 5
6 6 7 5 6 4 4 1 4 5 10 7 5 2 6 4 4 2 1 3 4 4 3 3 11 9 9 6 8 10 11 13 12 10 9 15 18 19 21 18 14 8 3 4 5
7 6 6 4 4 7 5 3 4 3 5 4 3 2 4 3 6 3 2 6 4 4 5 9 5 6 4 4 8 11 14 14 11 11 15 19 22 20 19 2 3 3 5 5 7
6 6 5 5 7 6 4 3 3 2 8 6 6 7 6 4 2 5 3 3 6 6 3 10 9 3 5 9 11 12 12 13 16 18 19 20 19 15 4 3 4 7 5 6 6
4 5 5 4 3 3 1 6 3 2 6 10 11 6 7 2 5 3 3 6 5 7 6 8 8 5 9 11 8 12 10 12 17 17 15 17 19 18 7 9 12 9 8 6 7
2 3 2 1 3 5 6 6 3 3 5 15 11 6 5 7 2 7 1 4 8 9 4 5 5 8 11 7 7 13 12 16 18 20 19 20 10 4 5 9 8 13 7 6 4
2 3 2 5 3 7 7 3 1 7 3 8 6 9 11 6 4 2 4 3 5 8 9 11 5 6 8 7 7 11 14 18 21 17 12 8 5 12 14 17 10 11 12 8 9
4 4 4 1 5 9 6 3 7 7 3 6 7 7 7 5 6 2 3 6 6 7 5 2 10 4 6 10 5 10 15 11 7 10 13 9 15 19 12 7 6 11 14 13 11
4 4 4 3 7 8 4 8 8 6 1 4 2 5 9 3 8 4 6 8 7 8 10 3 6 6 6 9 12 17 9 7 17 14 20 20 18 6 6 5 7 13 12 14 12
3 0 1 7 6 6 9 8 5 5 5 4 5 10 11 6 6 3 8 5 5 5 6 7 3 3 11 10 10 10 13 8 13 16 16 14 14 22 20 17 10 12 16 9 13
2 3 3 7 7 5 8 6 3 3 6 5 10 1 7 7 4 4 4 6 2 2 5 7 11 9 2 6 16 11 11 11 8 12 17 16 22 16 18 18 19 26 31 33 16
3 7 5 8 6 9 7 5 1 4 6 4 6 5 7 7 5 9 3 8 1 2 6 10 8 10 12 15 13 10 12 13 12 10 15 18 11 22 24 15 18 23 28 25 35
4 5 9 8 11 2 4 4 2 4 2 3 6 7 8 5 8 6 4 3 4 6 9 7 6 11 17 18 5 8 12 10 7 13 13 14 17 20 14 12 9 10 13 19 21
9 3 9 6 4 3 2 3 2 5 1 4 2 2 1 6 2 5 3 9 4 6 7 8 4 9 8 6 8 7 8 12 14 14 15 15 14 18 20 20 21 21 20 14 16
8 3 5 5 5 6 4 5 5 1 2 3 4 6 6 8 7 5 5 5 3 3 4 5 5 11 11 17 17 18 17 16 15 9 16 16 22 21 18 16 16 18 21 15 9
8 4 3 6 4 8 4 3 7 4 2 4 4 3 3 5 6 9 3 5 8 7 4 4 10 14 18 18 19 19 19 17 17 18 16 19 19 15 12 11 19 20 19 23 20
8 7 6 13 6 7 5 4 6 1 3 5 7 3 6 8 9 12 12 10 8 5 5 4 4 13 18 19 15 16 19 20 19 17 17 15 16 13 14 15 14 19 24 25 26
8 7 6 5 6 7 1 3 1 3 3 3 5 7 9 7 9 13 15 14 14 11 10 8 4 8 12 11 19 15 7 9 8 10 12 12 13 13 11 14 22 26 28 31 25
Wind_Direction
54 47 49 56 63 91 119 126 124 113 99 95 112 121 113 103 87 65 55 62 66 81 53 28 200 206 200 195 247 248 251 239 138 303 98 101 281 79 292 282 31 36 35 351 342
55 57 59 58 71 102 123 128 121 106 96 113 123 126 124 119 102 64 61 41 53 81 17 230 175 195 185 186 223 251 265 60 38 16 348 9 290 349 276 214 215 319 323 321 318
60 61 71 77 92 112 128 129 115 96 96 133 138 137 133 116 222 61 40 40 60 109 12 135 160 237 186 94 259 285 13 86 125 19 310 329 239 317 296 267 37 321 312 311 305
69 66 82 96 114 126 134 131 114 91 84 145 161 155 104 282 1 23 60 53 56 40 236 190 216 215 319 94 20 120 60 335 87 149 251 269 348 287 284 316 323 300 309 306 304
79 79 91 111 127 135 140 135 119 100 81 143 194 211 246 164 77 34 65 15 35 41 83 186 199 180 31 91 133 91 111 201 167 213 255 320 264 288 271 227 295 306 308 305 303
88 86 107 123 137 146 148 143 128 102 68 88 125 135 259 99 84 52 61 43 47 48 55 110 107 34 106 91 308 79 248 182 201 192 228 275 293 257 265 222 291 301 306 298 303
111 91 106 124 136 154 159 155 143 124 71 101 127 149 11 81 139 91 49 51 34 39 40 48 79 267 172 158 328 219 240 185 215 270 289 312 273 224 236 271 293 293 303 295 288
121 119 114 118 121 147 168 172 163 168 107 142 150 340 85 121 140 103 79 20 6 352 67 303 350 136 282 263 210 236 243 254 155 153 163 246 294 89 307 275 288 296 292 280 290
95 130 125 116 109 117 153 179 193 201 203 160 197 272 129 131 141 125 78 43 61 127 272 230 236 278 204 230 224 192 328 334 317 175 306 264 299 294 286 292 290 299 264 280 298
81 123 127 107 88 107 122 126 145 180 167 171 260 245 161 150 142 180 256 35 323 248 223 233 228 235 197 336 0 345 332 321 305 332 329 305 294 303 302 293 291 284 244 279 299
78 114 123 100 72 67 147 303 202 200 204 319 99 25 122 131 139 159 242 278 293 254 339 256 258 33 30 3 336 318 304 298 296 339 298 297 296 289 295 292 280 247 288 283 305
77 106 119 92 61 68 57 297 4 349 230 194 186 214 157 139 173 160 314 270 296 334 262 237 109 72 337 299 296 296 292 296 325 326 320 303 295 294 277 260 308 314 261 280 313
76 107 110 87 70 60 52 20 329 273 258 149 181 172 152 192 60 83 298 339 292 270 343 311 74 62 291 301 310 302 312 334 314 310 288 280 292 296 99 159 194 230 244 269 311
77 115 113 88 41 350 328 343 329 249 257 138 180 158 180 207 191 328 303 304 242 324 340 285 65 299 293 292 329 310 11 309 300 301 301 312 292 284 261 190 183 232 242 311 320
44 145 132 351 20 347 313 322 254 285 258 151 142 134 191 241 49 151 287 243 276 312 246 68 280 303 304 331 334 299 327 300 287 282 289 286 253 189 246 239 249 215 214 279 304
313 198 135 2 22 351 338 302 320 235 216 148 164 203 200 189 176 128 215 257 295 285 267 279 310 288 305 316 258 301 286 291 279 259 253 303 312 289 301 315 322 297 333 329 309
318 221 201 202 320 329 323 251 244 256 108 151 201 205 240 144 201 257 294 262 304 286 225 263 259 79 293 292 298 282 316 313 298 305 294 340 322 311 328 350 356 330 310 296 326
330 228 242 323 314 319 307 243 264 34 190 44 262 222 246 138 216 256 266 259 145 306 301 288 292 188 111 314 311 299 305 293 299 312 310 306 281 322 203 171 339 295 346 338 323
27 344 306 299 312 316 269 243 350 14 24 285 220 252 214 194 270 238 244 319 35 10 325 315 268 24 262 305 311 308 279 3 289 285 280 306 321 326 44 21 330 284 229 248 304
71 226 350 324 310 293 255 272 3 17 306 247 263 359 287 173 231 189 302 95 108 336 356 323 295 276 12 298 257 227 298 302 301 295 296 303 312 290 7 329 346 7 10 350 303
22 248 355 332 291 247 265 54 146 80 324 309 297 291 276 299 287 293 292 112 26 120 303 293 267 283 283 270 315 298 267 270 286 303 305 305 294 337 322 349 357 341 342 337 311
323 279 348 337 264 298 346 15 351 289 279 271 280 288 295 332 295 283 288 52 58 331 306 30 306 293 291 290 22 289 290 296 284 292 295 294 282 291 317 16 353 327 298 310 297
345 338 350 347 320 12 97 226 308 296 31 304 265 265 46 284 305 284 288 99 43 333 348 5 273 311 290 144 181 239 275 283 289 280 276 286 286 294 321 357 345 346 344 350 335
333 318 18 43 38 324 340 260 249 101 229 274 311 255 265 253 223 269 259 138 134 295 354 253 263 254 268 300 309 296 294 291 286 273 279 277 297 301 354 338 339 332 346 351 308
6 60 359 325 23 326 282 313 275 226 227 263 203 285 321 284 294 269 284 276 264 123 207 269 268 275 280 291 292 286 281 280 277 276 276 288 295 334 330 331 330 341 346 331 320
352 342 324 278 292 273 154 172 298 124 273 165 269 65 300 285 289 299 313 302 287 204 252 247 262 290 286 277 278 297 292 285 271 267 269 293 302 19 338 329 348 329 324 323 319
349 307 300 281 248 263 64 29 328 318 172 299 330 306 280 350 331 303 292 281 272 276 276 287 300 291 283 326 317 284 297 335 315 298 290 295 301 336 347 331 328 322 322 318 315